[[{"header":{"parameterUnit":"m.s-1","parameterCategory":1,"la1":30.2991,"la2":30.254,"lo1":-89.0895,"lo2":-89.0444,"dy":0.0017,"dx":0.0017,"nx":28,"ny":28,"refTime":"2025-08-05T03:00:00:Z","depth":0,"parameterNumber":2,"parameterNumberName":"U-component_of_WINDS"},"data":[0,0,0,0,0,0,0,0,0,0,0,0,0,0,0,0,0,0,0,0,0,0,0,0,0,0,0,0,0,0,0,0,0,0,0,0,0,0,0,0,0,0,0,0,0,0,0,0,0,0,0,0,0,0,0,0,0,0,-3.432,-3.432,0,-3.4309,-3.4309,-3.4309,-3.4219,-3.4216,-3.4214,-3.4212,-3.4202,-3.4204,-3.4206,0,0,0,0,0,0,0,0,0,0,0,0,0,-3.4263,-3.4265,-3.432,-3.432,-3.432,-3.431,-3.4309,-3.4309,-3.4219,-3.4216,-3.4214,-3.4211,-3.4202,-3.4204,-3.4206,0,0,0,0,0,0,0,0,0,0,0,0,0,-3.4274,-3.4265,-3.432,-3.4274,-3.4269,-3.431,-3.4309,-3.4309,-3.422,-3.4216,-3.4213,-3.421,-3.4201,-3.4204,-3.4206,-3.4291,0,0,-3.4215,-3.4216,0,0,0,0,0,0,0,0,-3.4273,-3.4276,-3.4281,-3.4277,-3.4272,-3.4262,-3.4285,-3.4303,-3.422,-3.4239,-3.4212,-3.4208,-3.4225,-3.4226,-3.4231,-3.429,-3.429,-3.4215,-3.4217,-3.4218,-3.4219,0,0,0,0,0,0,0,-3.4273,-3.4276,-3.4316,-3.4281,-3.4276,-3.4253,-3.4251,-3.4288,-3.4251,-3.4237,-3.423,-3.423,-3.4222,-3.4229,-3.423,-3.429,-3.4215,-3.4217,-3.4219,-3.422,-3.4415,-3.4419,0,0,0,0,0,0,-3.4278,-3.4276,-3.4316,-3.4316,-3.4264,-3.4257,-3.4255,-3.4269,-3.425,-3.4244,-3.4233,-3.4226,-3.4225,-3.4227,-3.4229,-3.4325,-3.4218,-3.422,-3.4222,-3.4412,-3.4416,-3.442,0,0,0,0,0,0,-3.4277,-3.4283,-3.4317,-3.4294,-3.4297,-3.4262,-3.4278,-3.427,-3.4277,-3.4247,-3.424,-3.4246,-3.4223,-3.4225,-3.4275,-3.4324,-3.4222,-3.4224,-3.4408,-3.4413,-3.4418,-3.4519,0,0,0,0,0,0,-3.4276,-3.4283,-3.4315,-3.4295,-3.4298,-3.4364,-3.4281,-3.4273,-3.4281,-3.4272,-3.4258,-3.4252,-3.422,-3.4272,-3.4278,-3.4325,-3.4226,-3.4403,-3.441,-3.4417,-3.4511,-3.4527,-3.454,0,0,0,0,0,-3.4274,-3.4344,-3.4317,-3.4322,-3.4337,-3.4366,-3.4368,-3.4329,-3.4286,-3.4317,-3.4298,-3.4253,-3.4318,-3.4278,-3.4284,-3.4333,-3.44,-3.4408,-3.4416,-3.4504,-3.4524,-3.454,0,0,0,0,0,0,-3.4371,-3.4341,-3.431,-3.4376,-3.4374,-3.4351,-3.439,-3.4351,-3.4363,-3.4353,-3.4305,-3.4303,-3.436,-3.4352,-3.4308,-3.4413,-3.4351,-3.4361,-3.4416,-3.4434,-3.4448,-3.4449,-3.4229,0,0,0,0,0,-3.44,-3.4426,-3.4398,-3.4459,-3.446,-3.4425,-3.4437,-3.4407,-3.4403,-3.4402,-3.4387,-3.4386,-3.4405,-3.4419,-3.4436,-3.451,-3.4504,-3.4546,-3.4561,-3.4573,-3.4582,-3.4618,-3.4636,-3.4446,-3.4446,-3.4446,0,0,-3.446,-3.4447,-3.4467,-3.4478,-3.4473,-3.4501,-3.4425,-3.4458,-3.4478,-3.4407,-3.4453,-3.4442,-3.4437,-3.4499,-3.4525,-3.4494,-3.4633,-3.4583,-3.4593,-3.4595,-3.4628,-3.4646,-3.4662,-3.4452,-3.4451,-3.445,0,0,-3.4584,-3.4577,-3.4625,-3.4622,-3.4615,-3.4591,-3.4603,-3.4585,-3.4575,-3.462,-3.4567,-3.459,-3.4626,-3.4624,-3.4628,-3.4749,-3.4707,-3.4756,-3.4833,-3.4869,-3.4884,-3.4897,-3.4938,-3.4954,-3.4765,-3.4765,-3.4765,0,-3.4659,-3.4699,-3.4655,-3.4691,-3.4697,-3.4634,-3.4682,-3.4681,-3.4681,-3.4686,-3.4651,-3.4693,-3.4685,-3.4745,-3.4774,-3.478,-3.4791,-3.4757,-3.4885,-3.4897,-3.4909,-3.4948,-3.4964,-3.4771,-3.477,-3.477,-3.4769,0,-3.4791,-3.4819,-3.4859,-3.4859,-3.487,-3.4912,-3.4875,-3.4891,-3.486,-3.484,-3.4886,-3.4875,-3.4887,-3.49,-3.4871,-3.4955,-3.4935,-3.4893,-3.483,-3.4934,-3.4969,-3.4984,-3.4779,-3.4777,-3.4775,-3.4774,0,0,-3.4975,-3.4949,-3.4965,-3.4963,-3.495,-3.4971,-3.501,-3.5021,-3.5035,-3.5037,-3.5068,-3.5099,-3.506,-3.5064,-3.5034,-3.5066,-3.5161,-3.502,-3.5019,-3.5045,-3.5251,-3.5282,-3.53,-3.5134,-3.5137,-3.5139,-3.5251,0,-3.5092,-3.5156,-3.5118,-3.5188,-3.5212,-3.5152,-3.5185,-3.5181,-3.5164,-3.5182,-3.5162,-3.5184,-3.5132,-3.5134,-3.5163,-3.5143,-3.5202,-3.5135,-3.5161,-3.5163,-3.5163,-3.5319,-3.5352,-3.5459,-3.5265,-3.5268,-3.5269,0,-3.5237,-3.5243,-3.5316,-3.5296,-3.5305,-3.5336,-3.5342,-3.5361,-3.5355,-3.534,-3.5344,-3.5306,-3.5342,-3.5281,-3.533,-3.5286,-3.5294,-3.5287,-3.529,-3.529,-3.5222,-3.5322,-3.5492,-3.5507,-3.5291,-3.529,-3.5288,0,-3.5362,-3.5389,-3.5435,-3.5435,-3.5415,-3.5437,-3.543,-3.5421,-3.5429,-3.5435,-3.544,-3.5451,-3.5457,-3.5466,-3.5431,-3.539,-3.5485,-3.5421,-3.5473,-3.5474,-3.5494,-3.5493,-3.5667,-3.5503,-3.5503,-3.5502,-3.5502,0,-3.5496,-3.5542,-3.549,-3.5518,-3.5568,-3.5523,-3.5574,-3.556,-3.5552,-3.5576,-3.5525,-3.5549,-3.5503,-3.5522,-3.5496,-3.554,-3.5543,-3.5531,-3.5524,-3.5535,-3.5536,-3.5539,-3.553,-3.5507,-3.5506,-3.5505,-3.5504,0,-3.5643,-3.5611,-3.5656,-3.5632,-3.5627,-3.5665,-3.5644,-3.5669,-3.5648,-3.5679,-3.5684,-3.565,-3.567,-3.5637,-3.5654,-3.5636,-3.5696,-3.5678,-3.5698,-3.5692,-3.5745,-3.574,-3.5925,-3.5947,-3.5771,-3.5773,-3.5774,0,-3.573,-3.5763,-3.5743,-3.5755,-3.575,-3.577,-3.5778,-3.5736,-3.5746,-3.5741,-3.5767,-3.5782,-3.5792,-3.5827,-3.5804,-3.5816,-3.5797,-3.5861,-3.5798,-3.5808,-3.5796,-3.5794,-3.5796,-3.5873,-3.5876,-3.5877,-3.5879,0,-3.5887,-3.5868,-3.5882,-3.5889,-3.59,-3.5904,-3.5904,-3.5917,-3.5872,-3.5887,-3.5906,-3.5914,-3.5929,-3.5945,-3.5952,-3.5944,-3.5904,-3.5899,-3.5911,-3.5922,-3.5932,-3.5926,-3.5731,-3.5894,-3.5893,-3.5892,-3.5891,-3.589,-3.6005,-3.6031,-3.602,-3.6036,-3.6032,-3.6033,-3.6054,-3.6035,-3.605,-3.6059,-3.6033,-3.6058,-3.605,-3.6054,-3.6051,-3.607,-3.6042,-3.606,-3.6064,-3.6069,-3.6077,-3.593,-3.6071,-3.6071,-3.607,-3.607,-3.6069,0,-3.6158,-3.6147,-3.6162,-3.6163,-3.6176,-3.6136,-3.6135,-3.6148,-3.617,-3.6165,-3.6176,-3.6197,-3.6212,-3.619,-3.6201,-3.6221,-3.6203,-3.6225,-3.6222,-3.6221,-3.6102,-3.609,-3.6239,-3.6239,-3.6239,-3.6239,-3.6239,-3.6239,-3.6239,-3.628,-3.6261,-3.6299,-3.6288,-3.6311,-3.6313,-3.6314,-3.631,-3.6336,-3.6347,-3.6333,-3.6321,-3.6331,-3.6343,-3.6336,-3.6342,-3.637,-3.6357,-3.6246,-3.623,-3.6214,-3.6201,-3.6372,-3.6373,-3.6474,-3.6475,-3.6476]},{"header":{"parameterUnit":"m.s-1","parameterCategory":1,"la1":30.2991,"la2":30.254,"lo1":-89.0895,"lo2":-89.0444,"dy":0.0017,"dx":0.0017,"nx":28,"ny":28,"refTime":"2025-08-05T03:00:00:Z","depth":0,"parameterNumber":3,"parameterNumberName":"V-component_of_WINDS"},"data":[0,0,0,0,0,0,0,0,0,0,0,0,0,0,0,0,0,0,0,0,0,0,0,0,0,0,0,0,0,0,0,0,0,0,0,0,0,0,0,0,0,0,0,0,0,0,0,0,0,0,0,0,0,0,0,0,0,0,-0.1966,-0.1967,0,-0.2051,-0.2052,-0.2053,-0.21,-0.21,-0.2101,-0.2101,-0.2188,-0.2191,-0.2193,0,0,0,0,0,0,0,0,0,0,0,0,0,-0.1846,-0.1848,-0.1966,-0.1967,-0.1968,-0.205,-0.2052,-0.2053,-0.21,-0.21,-0.2101,-0.2101,-0.2188,-0.219,-0.2193,0,0,0,0,0,0,0,0,0,0,0,0,0,-0.1911,-0.1849,-0.1966,-0.2002,-0.2006,-0.205,-0.2052,-0.2053,-0.21,-0.21,-0.2101,-0.2101,-0.2187,-0.219,-0.2193,-0.2209,0,0,-0.2203,-0.2205,0,0,0,0,0,0,0,0,-0.1908,-0.1916,-0.1996,-0.2,-0.2004,-0.2065,-0.2042,-0.2105,-0.21,-0.2064,-0.2101,-0.2101,-0.2147,-0.2154,-0.2169,-0.2213,-0.2217,-0.2204,-0.2206,-0.2207,-0.2208,0,0,0,0,0,0,0,-0.1903,-0.1912,-0.2,-0.1997,-0.2002,-0.2014,-0.2023,-0.2054,-0.2104,-0.2068,-0.2071,-0.2081,-0.215,-0.2166,-0.2172,-0.2218,-0.2204,-0.2206,-0.2208,-0.221,-0.2277,-0.2277,0,0,0,0,0,0,-0.1893,-0.1908,-0.1997,-0.2002,-0.1955,-0.2016,-0.2026,-0.2045,-0.2103,-0.2112,-0.208,-0.2082,-0.216,-0.2168,-0.2175,-0.2196,-0.2207,-0.221,-0.2212,-0.2277,-0.2277,-0.2277,0,0,0,0,0,0,-0.189,-0.19,-0.1994,-0.1956,-0.1969,-0.2018,-0.2039,-0.2047,-0.2063,-0.2113,-0.2122,-0.2088,-0.2161,-0.217,-0.22,-0.22,-0.2212,-0.2215,-0.2277,-0.2277,-0.2277,-0.2239,0,0,0,0,0,0,-0.1886,-0.1899,-0.1905,-0.1956,-0.1971,-0.2017,-0.2039,-0.2048,-0.2069,-0.2072,-0.2122,-0.2131,-0.2162,-0.2194,-0.2203,-0.2205,-0.2217,-0.2278,-0.2277,-0.2277,-0.224,-0.2237,-0.2235,0,0,0,0,0,-0.1882,-0.1892,-0.1906,-0.1916,-0.198,-0.2017,-0.2025,-0.206,-0.2068,-0.2075,-0.2107,-0.2129,-0.2198,-0.2197,-0.2207,-0.221,-0.2278,-0.2277,-0.2277,-0.2242,-0.2238,-0.2235,0,0,0,0,0,0,-0.1841,-0.1899,-0.1915,-0.1942,-0.1974,-0.2025,-0.2035,-0.2055,-0.2086,-0.2088,-0.2131,-0.2141,-0.2166,-0.2191,-0.2189,-0.2227,-0.224,-0.2242,-0.221,-0.2207,-0.2204,-0.2198,-0.222,0,0,0,0,0,-0.1835,-0.186,-0.191,-0.1929,-0.1944,-0.1986,-0.2003,-0.2027,-0.2062,-0.2076,-0.211,-0.2144,-0.2173,-0.2191,-0.2221,-0.2244,-0.2255,-0.225,-0.2247,-0.2245,-0.2246,-0.2259,-0.2257,-0.2276,-0.2276,-0.2276,0,0,-0.1824,-0.1858,-0.1872,-0.1921,-0.1949,-0.1973,-0.1997,-0.2023,-0.2041,-0.208,-0.211,-0.2135,-0.2176,-0.2201,-0.2214,-0.2223,-0.2243,-0.2244,-0.2242,-0.2245,-0.2258,-0.2256,-0.2255,-0.2275,-0.2275,-0.2275,0,0,-0.1815,-0.1844,-0.1862,-0.1889,-0.193,-0.1957,-0.1962,-0.2009,-0.2027,-0.2057,-0.2087,-0.2109,-0.2159,-0.2186,-0.2206,-0.2204,-0.2226,-0.2213,-0.2198,-0.221,-0.2209,-0.2208,-0.2207,-0.2206,-0.2213,-0.2213,-0.2213,0,-0.1795,-0.1833,-0.1869,-0.1892,-0.1913,-0.1948,-0.1966,-0.1991,-0.2039,-0.2053,-0.2061,-0.2122,-0.2152,-0.2184,-0.2183,-0.2198,-0.2204,-0.2208,-0.2206,-0.2205,-0.2205,-0.2204,-0.2204,-0.2212,-0.2212,-0.2212,-0.2212,0,-0.1807,-0.1832,-0.1842,-0.1887,-0.1909,-0.193,-0.1968,-0.1985,-0.2007,-0.2033,-0.2063,-0.2099,-0.2136,-0.2145,-0.2167,-0.218,-0.2183,-0.2198,-0.2213,-0.2201,-0.2201,-0.2201,-0.2209,-0.221,-0.221,-0.2211,0,0,-0.1776,-0.1839,-0.1842,-0.1862,-0.1909,-0.193,-0.1951,-0.1987,-0.2,-0.2032,-0.2051,-0.2091,-0.2105,-0.2127,-0.2152,-0.2162,-0.2158,-0.2176,-0.2178,-0.2171,-0.2173,-0.2162,-0.2161,-0.2172,-0.2172,-0.2172,-0.217,0,-0.1774,-0.1815,-0.1846,-0.1875,-0.1898,-0.1931,-0.195,-0.198,-0.2005,-0.2029,-0.2057,-0.2084,-0.21,-0.2114,-0.2126,-0.2156,-0.2159,-0.2156,-0.219,-0.2191,-0.2179,-0.2161,-0.215,-0.2146,-0.217,-0.217,-0.217,0,-0.1777,-0.1807,-0.1837,-0.188,-0.1891,-0.1907,-0.1941,-0.1963,-0.1998,-0.2016,-0.204,-0.2065,-0.2089,-0.21,-0.2133,-0.213,-0.2146,-0.2163,-0.2163,-0.2168,-0.218,-0.2165,-0.2146,-0.2145,-0.2171,-0.2171,-0.2171,0,-0.1751,-0.1799,-0.1823,-0.1839,-0.189,-0.19,-0.1922,-0.1957,-0.1975,-0.2005,-0.2017,-0.2049,-0.2067,-0.2091,-0.2124,-0.2129,-0.2153,-0.2167,-0.2168,-0.2167,-0.2172,-0.2171,-0.2154,-0.2182,-0.2182,-0.2182,-0.2182,0,-0.1746,-0.1763,-0.1811,-0.1826,-0.1846,-0.1882,-0.1901,-0.1925,-0.1955,-0.1975,-0.2005,-0.2023,-0.2065,-0.2088,-0.2114,-0.2137,-0.2145,-0.2159,-0.2166,-0.2157,-0.2155,-0.2168,-0.2169,-0.2182,-0.2182,-0.2182,-0.2182,0,-0.1721,-0.1754,-0.1782,-0.1827,-0.1838,-0.1851,-0.1889,-0.1905,-0.193,-0.1955,-0.1963,-0.2004,-0.2032,-0.2067,-0.2106,-0.2124,-0.2144,-0.2154,-0.2132,-0.2136,-0.2134,-0.2134,-0.2125,-0.2126,-0.2152,-0.2152,-0.2152,0,-0.1715,-0.1729,-0.1775,-0.179,-0.181,-0.1834,-0.1853,-0.1888,-0.1906,-0.1945,-0.1956,-0.1986,-0.2012,-0.2056,-0.2089,-0.2119,-0.213,-0.2125,-0.2135,-0.2125,-0.213,-0.2128,-0.213,-0.2122,-0.2122,-0.2121,-0.2121,0,-0.1701,-0.1717,-0.1742,-0.1773,-0.1794,-0.182,-0.1847,-0.1858,-0.1898,-0.1917,-0.1945,-0.1966,-0.2005,-0.2035,-0.2069,-0.2091,-0.2113,-0.2117,-0.2119,-0.211,-0.2096,-0.2103,-0.2125,-0.2118,-0.2118,-0.2118,-0.2119,-0.2119,-0.1686,-0.1699,-0.1733,-0.176,-0.1783,-0.1808,-0.1824,-0.1851,-0.1875,-0.191,-0.1929,-0.1957,-0.199,-0.2037,-0.2059,-0.2081,-0.2089,-0.2091,-0.2092,-0.2092,-0.2089,-0.2092,-0.2087,-0.2087,-0.2087,-0.2088,-0.2088,0,-0.1673,-0.1696,-0.172,-0.1757,-0.1778,-0.1795,-0.1826,-0.1842,-0.1866,-0.1894,-0.1919,-0.1951,-0.1979,-0.2014,-0.2044,-0.2055,-0.2066,-0.2062,-0.2062,-0.2066,-0.208,-0.2076,-0.2053,-0.2053,-0.2053,-0.2053,-0.2053,-0.2053,-0.1669,-0.1692,-0.1711,-0.1746,-0.1768,-0.1795,-0.1811,-0.1833,-0.1856,-0.189,-0.1914,-0.1936,-0.1966,-0.1999,-0.2025,-0.2035,-0.2044,-0.2037,-0.205,-0.2062,-0.2065,-0.2068,-0.2064,-0.2039,-0.2039,-0.2034,-0.2034,-0.2034]}]]